Location: Corte Bragagnani
(45.3000°N, 11.1000°E)
Time: 08:47:30
(UTC+00:00)

Cosmos 1174 - Pass Details

Date: 09 April 2020
Orbit: 370 x 1148 km, 66.1° (Epoch: 01 June)

Event Time Altitude Azimuth Distance (km) Brightness Sun altitude
Rises 19:55:16 0° 327° (NNW) 2,674 8.6 -20.2°
Reaches altitude 10° 19:57:15 10° 329° (NNW) 1,879 7.5 -20.5°
Maximum altitude 20:01:29 78° 56° (NE) 687 4.1 -21.1°
Enters shadow 20:02:37 53° 130° (SE) 857 4.3 -21.2°
